Location: Appleton
(44.2618°N, 88.4157°W)
Time: 18:30:06
(UTC+00:00)

Tiros 1 despin weight - Pass Details

Date: 03 March 2021
Orbit: 593 x 641 km, 48.2° (Epoch: 11 April)

Event Time Altitude Azimuth Distance (km) Brightness Sun altitude
Exits shadow 11:48:37 - 280° (W) 2,089 ? -7.6°
Reaches altitude 10° 11:48:48 10° 279° (W) 2,029 ? -7.6°
Maximum altitude 11:52:53 30° 219° (SW) 1,139 ? -6.9°
Drops below altitude 10° 11:56:58 10° 158° (SSE) 2,023 ? -6.2°
Sets 11:59:29 0° 147° (SSE) 2,926 ? -5.7°
